�������l�o���
Date,Time,MP-1(��Sv/h),MP-2(��Sv/h),MP-3(��Sv/h),MP-4(��Sv/h),MP-5(��Sv/h),MP-6(��Sv/h),MP-7(��Sv/h),����,����(m/s),���J
2019/01/06,00:00,0.226,0.194,0.315,0.296,0.280,0.157,0.096,�k�k��,3.5,��
2019/01/06,00:10,0.226,0.195,0.315,0.296,0.279,0.157,0.095,�k�k��,3.5,��
2019/01/06,00:20,0.226,0.195,0.315,0.296,0.278,0.158,0.095,�k,3.9,��
2019/01/06,00:30,0.226,0.194,0.316,0.296,0.278,0.158,0.095,�k�k��,4.3,��
2019/01/06,00:40,0.225,0.195,0.314,0.295,0.278,0.157,0.095,�k,5.5,��
2019/01/06,00:50,0.227,0.195,0.315,0.296,0.280,0.157,0.095,�k�k��,5.1,��
2019/01/06,01:00,0.226,0.195,0.314,0.295,0.279,0.157,0.096,�k�k��,3.9,��
2019/01/06,01:10,0.227,0.194,0.315,0.294,0.278,0.157,0.096,�k�k��,3.8,��
2019/01/06,01:20,0.226,0.195,0.314,0.295,0.279,0.157,0.095,�k�k��,4.4,��
2019/01/06,01:30,0.228,0.194,0.315,0.296,0.278,0.156,0.096,�k�k��,3.9,��
2019/01/06,01:40,0.228,0.195,0.315,0.297,0.278,0.158,0.096,�k�k��,4.2,��
2019/01/06,01:50,0.226,0.195,0.315,0.294,0.278,0.157,0.095,�k�k��,4.2,��
2019/01/06,02:00,0.227,0.194,0.315,0.295,0.279,0.157,0.095,�k�k��,4.7,��
2019/01/06,02:10,0.226,0.195,0.315,0.295,0.280,0.156,0.095,�k��,4.4,��
2019/01/06,02:20,0.227,0.195,0.316,0.294,0.278,0.157,0.096,�k��,4.8,��
2019/01/06,02:30,0.227,0.196,0.315,0.296,0.279,0.156,0.095,�k��,5.3,��
2019/01/06,02:40,0.227,0.195,0.318,0.295,0.278,0.158,0.096,�k��,5.6,��
2019/01/06,02:50,0.226,0.194,0.316,0.295,0.278,0.157,0.096,�k�k��,5.5,��
2019/01/06,03:00,0.228,0.195,0.316,0.296,0.278,0.158,0.096,�k�k��,4.9,��
2019/01/06,03:10,0.226,0.194,0.315,0.294,0.280,0.157,0.095,�k,3.3,��
2019/01/06,03:20,0.227,0.194,0.315,0.295,0.278,0.158,0.095,�k,4.0,��
2019/01/06,03:30,0.227,0.195,0.316,0.296,0.279,0.158,0.096,�k�k��,5.4,��
2019/01/06,03:40,0.226,0.194,0.316,0.296,0.277,0.158,0.096,�k�k��,5.1,��
2019/01/06,03:50,0.227,0.196,0.316,0.295,0.278,0.157,0.095,�k�k��,4.6,��
2019/01/06,04:00,0.226,0.195,0.316,0.295,0.280,0.158,0.095,�k,4.3,��
2019/01/06,04:10,0.228,0.194,0.316,0.295,0.279,0.156,0.095,�k�k��,4.0,��
2019/01/06,04:20,0.226,0.195,0.316,0.295,0.277,0.157,0.095,�k�k��,5.3,��
2019/01/06,04:30,0.227,0.195,0.316,0.296,0.279,0.158,0.096,�k��,6.0,��
2019/01/06,04:40,0.227,0.195,0.316,0.296,0.278,0.158,0.095,�k��,7.0,��
2019/01/06,04:50,0.227,0.195,0.316,0.295,0.279,0.158,0.096,�k��,6.5,��
2019/01/06,05:00,0.228,0.194,0.315,0.296,0.278,0.157,0.096,���k��,5.3,��
2019/01/06,05:10,0.226,0.194,0.317,0.295,0.279,0.157,0.096,���k��,5.0,��
2019/01/06,05:20,0.228,0.195,0.316,0.297,0.279,0.157,0.096,���k��,3.4,��
2019/01/06,05:30,0.226,0.195,0.316,0.295,0.279,0.156,0.096,���k��,1.2,��
2019/01/06,05:40,0.227,0.194,0.317,0.295,0.278,0.157,0.095,���k��,2.4,��
2019/01/06,05:50,0.227,0.195,0.314,0.297,0.279,0.157,0.096,�k��,1.1,��
2019/01/06,06:00,0.226,0.195,0.316,0.296,0.278,0.157,0.095,�k��,1.2,��
2019/01/06,06:10,0.227,0.194,0.315,0.296,0.279,0.157,0.095,���k��,1.8,��
2019/01/06,06:20,0.228,0.195,0.316,0.296,0.278,0.157,0.095,���k��,2.4,��
2019/01/06,06:30,0.227,0.195,0.317,0.296,0.279,0.157,0.096,���k��,1.5,��
2019/01/06,06:40,0.227,0.194,0.315,0.297,0.279,0.157,0.095,-,CALM,��
2019/01/06,06:50,0.227,0.195,0.316,0.295,0.277,0.158,0.096,-,CALM,��
2019/01/06,07:00,0.228,0.196,0.315,0.296,0.278,0.158,0.096,���쐼,1.4,��
2019/01/06,07:10,0.227,0.195,0.317,0.296,0.279,0.157,0.095,��,0.7,��
2019/01/06,07:20,0.227,0.195,0.317,0.295,0.277,0.157,0.095,��,0.8,��
2019/01/06,07:30,0.227,0.195,0.316,0.295,0.278,0.158,0.095,��,1.3,��
2019/01/06,07:40,0.226,0.196,0.317,0.296,0.276,0.157,0.096,���쐼,1.4,��
2019/01/06,07:50,0.226,0.195,0.315,0.296,0.278,0.158,0.097,���쐼,1.6,��
2019/01/06,08:00,0.227,0.194,0.316,0.295,0.279,0.158,0.096,���쐼,2.2,��
2019/01/06,08:10,0.227,0.195,0.316,0.296,0.278,0.157,0.096,���쐼,2.2,��
2019/01/06,08:20,0.227,0.195,0.317,0.296,0.278,0.157,0.096,���쐼,2.9,��
2019/01/06,08:30,0.227,0.194,0.317,0.293,0.279,0.157,0.096,��,2.2,��
2019/01/06,08:40,0.227,0.195,0.315,0.295,0.278,0.159,0.096,��,2.2,��
2019/01/06,08:50,0.227,0.195,0.316,0.295,0.279,0.158,0.096,��,2.6,��
2019/01/06,09:00,0.227,0.195,0.316,0.296,0.278,0.157,0.096,�k��,3.7,��
2019/01/06,09:10,0.226,0.195,0.316,0.296,0.278,0.158,0.097,�k��,4.5,��
2019/01/06,09:20,0.227,0.195,0.317,0.295,0.279,0.156,0.096,�k�k��,3.5,��
2019/01/06,09:30,0.227,0.194,0.315,0.295,0.279,0.157,0.096,�k��,2.4,��
2019/01/06,09:40,0.227,0.194,0.315,0.295,0.279,0.157,0.095,�k��,1.6,��
2019/01/06,09:50,0.228,0.195,0.316,0.295,0.279,0.157,0.096,�k�k��,2.5,��
2019/01/06,10:00,0.228,0.196,0.316,0.295,0.279,0.158,0.095,�k�k��,2.4,��
2019/01/06,10:10,0.227,0.195,0.315,0.296,0.279,0.157,0.095,�k�k��,3.0,��
2019/01/06,10:20,0.226,0.194,0.317,0.295,0.279,0.158,0.095,�k�k��,2.7,��
2019/01/06,10:30,0.227,0.195,0.314,0.294,0.279,0.157,0.096,�k��,2.1,��
2019/01/06,10:40,0.227,0.195,0.316,0.295,0.279,0.157,0.096,�k��,4.1,��
2019/01/06,10:50,0.227,0.194,0.316,0.296,0.278,0.157,0.096,�k��,3.5,��
2019/01/06,11:00,0.228,0.194,0.316,0.297,0.278,0.157,0.096,�k�k��,2.1,��
2019/01/06,11:10,0.227,0.195,0.315,0.294,0.279,0.157,0.095,�k��,3.3,��
2019/01/06,11:20,0.226,0.195,0.316,0.297,0.278,0.157,0.095,�k��,3.4,��
2019/01/06,11:30,0.227,0.194,0.315,0.294,0.279,0.158,0.096,�k�k��,5.2,��
2019/01/06,11:40,0.226,0.194,0.316,0.295,0.279,0.157,0.096,�k��,5.1,��
2019/01/06,11:50,0.226,0.195,0.314,0.296,0.278,0.156,0.096,�k�k��,4.2,��
2019/01/06,12:00,0.227,0.194,0.314,0.297,0.279,0.157,0.096,�k��,4.7,��
2019/01/06,12:10,0.227,0.194,0.316,0.295,0.278,0.158,0.096,�k��,5.8,��
2019/01/06,12:20,0.226,0.195,0.314,0.296,0.280,0.158,0.095,���k��,5.2,��
2019/01/06,12:30,0.228,0.195,0.315,0.296,0.280,0.157,0.095,���k��,5.7,��
2019/01/06,12:40,0.226,0.196,0.315,0.295,0.280,0.157,0.095,���k��,5.0,��
2019/01/06,12:50,0.226,0.195,0.316,0.295,0.280,0.157,0.095,�k��,5.5,��
2019/01/06,13:00,0.227,0.194,0.315,0.297,0.281,0.158,0.096,���k��,8.1,��
2019/01/06,13:10,0.227,0.196,0.315,0.297,0.281,0.158,0.096,���k��,4.9,��
2019/01/06,13:20,0.227,0.194,0.316,0.296,0.281,0.157,0.096,���k��,7.4,��
2019/01/06,13:30,0.228,0.195,0.316,0.296,0.280,0.158,0.095,���k��,7.1,��
2019/01/06,13:40,0.228,0.196,0.316,0.296,0.280,0.157,0.095,���k��,4.5,��
2019/01/06,13:50,0.227,0.196,0.314,0.297,0.279,0.158,0.096,���k��,7.3,��
2019/01/06,14:00,0.227,0.194,0.317,0.296,0.281,0.158,0.095,���k��,4.7,��
2019/01/06,14:10,0.227,0.195,0.315,0.298,0.279,0.158,0.096,�k��,2.7,��
2019/01/06,14:20,0.227,0.196,0.316,0.297,0.278,0.158,0.095,�k��,1.4,��
2019/01/06,14:30,0.228,0.195,0.316,0.296,0.281,0.158,0.095,���k��,1.5,��
2019/01/06,14:40,0.227,0.195,0.316,0.296,0.281,0.158,0.095,���k��,1.6,��
2019/01/06,14:50,0.228,0.195,0.317,0.296,0.280,0.158,0.095,��,1.2,��
2019/01/06,15:00,0.227,0.195,0.315,0.296,0.279,0.158,0.096,-,CALM,��
2019/01/06,15:10,0.227,0.196,0.316,0.296,0.279,0.157,0.096,�k��,0.9,��
2019/01/06,15:20,0.228,0.195,0.316,0.295,0.280,0.158,0.096,���k��,1.2,��
2019/01/06,15:30,0.227,0.194,0.316,0.297,0.278,0.158,0.095,�k�k��,1.1,��
2019/01/06,15:40,0.226,0.196,0.316,0.297,0.279,0.158,0.095,�k��,2.4,��
2019/01/06,15:50,0.227,0.195,0.315,0.296,0.279,0.157,0.096,���k��,3.8,��
2019/01/06,16:00,0.227,0.195,0.318,0.296,0.279,0.158,0.096,���k��,2.6,��
2019/01/06,16:10,0.228,0.196,0.316,0.296,0.279,0.158,0.095,���k��,3.3,��
2019/01/06,16:20,0.227,0.195,0.317,0.297,0.280,0.158,0.095,�k��,2.7,��
2019/01/06,16:30,0.227,0.195,0.315,0.297,0.279,0.158,0.095,���k��,4.0,��
2019/01/06,16:40,0.227,0.195,0.315,0.297,0.279,0.158,0.095,���k��,4.1,��
2019/01/06,16:50,0.228,0.195,0.316,0.296,0.280,0.158,0.095,���k��,3.0,��
2019/01/06,17:00,0.227,0.195,0.316,0.296,0.279,0.157,0.096,�k�k��,2.4,��
2019/01/06,17:10,0.227,0.195,0.316,0.296,0.280,0.157,0.095,�k��,1.5,��
2019/01/06,17:20,0.227,0.195,0.315,0.296,0.278,0.157,0.096,�k��,2.1,��
2019/01/06,17:30,0.226,0.194,0.315,0.296,0.279,0.157,0.096,�k�k��,3.2,��
2019/01/06,17:40,0.228,0.195,0.317,0.295,0.279,0.158,0.095,�k�k��,1.6,��
2019/01/06,17:50,0.227,0.195,0.317,0.297,0.279,0.157,0.096,���k��,4.9,��
2019/01/06,18:00,0.227,0.195,0.315,0.296,0.279,0.156,0.096,�k��,5.5,��
2019/01/06,18:10,0.227,0.194,0.315,0.295,0.279,0.156,0.096,�k��,4.1,��
2019/01/06,18:20,0.227,0.195,0.315,0.296,0.278,0.158,0.095,���k��,5.0,��
2019/01/06,18:30,0.228,0.195,0.315,0.296,0.280,0.157,0.095,�k��,4.5,��
2019/01/06,18:40,0.226,0.194,0.315,0.296,0.280,0.157,0.095,�k��,4.5,��
2019/01/06,18:50,0.226,0.194,0.315,0.295,0.279,0.157,0.095,�k��,5.5,��
2019/01/06,19:00,0.226,0.194,0.315,0.295,0.279,0.158,0.095,�k�k��,4.2,��
2019/01/06,19:10,0.227,0.194,0.314,0.296,0.279,0.157,0.095,�k��,4.8,��
2019/01/06,19:20,0.227,0.195,0.316,0.296,0.279,0.157,0.095,�k��,7.0,��
2019/01/06,19:30,0.226,0.195,0.314,0.296,0.278,0.156,0.095,�k��,6.6,��
2019/01/06,19:40,0.227,0.195,0.315,0.295,0.278,0.157,0.095,�k��,5.2,��
2019/01/06,19:50,0.227,0.194,0.315,0.295,0.279,0.157,0.096,�k��,4.7,��
2019/01/06,20:00,0.226,0.195,0.317,0.296,0.280,0.156,0.095,���k��,6.8,��
2019/01/06,20:10,0.227,0.194,0.314,0.295,0.278,0.156,0.095,���k��,10.3,��
2019/01/06,20:20,0.227,0.194,0.314,0.295,0.278,0.158,0.095,���k��,9.8,��
2019/01/06,20:30,0.227,0.193,0.314,0.296,0.279,0.157,0.096,���k��,10.1,��
2019/01/06,20:40,0.227,0.195,0.315,0.295,0.279,0.157,0.095,���k��,10.6,��
2019/01/06,20:50,0.227,0.195,0.317,0.296,0.279,0.157,0.094,��,9.5,��
2019/01/06,21:00,0.227,0.194,0.315,0.296,0.279,0.156,0.095,���k��,8.1,��
2019/01/06,21:10,0.226,0.194,0.315,0.296,0.280,0.157,0.095,���k��,4.4,��
2019/01/06,21:20,0.227,0.194,0.316,0.295,0.280,0.156,0.096,���k��,3.2,��
2019/01/06,21:30,0.227,0.195,0.316,0.297,0.279,0.157,0.095,���k��,2.6,��
2019/01/06,21:40,0.228,0.194,0.315,0.295,0.278,0.158,0.095,���k��,4.8,��
2019/01/06,21:50,0.227,0.195,0.314,0.295,0.278,0.157,0.095,���k��,6.0,��
2019/01/06,22:00,0.227,0.195,0.315,0.296,0.280,0.158,0.096,���k��,4.4,��
2019/01/06,22:10,0.226,0.196,0.315,0.296,0.278,0.157,0.094,���k��,4.7,��
2019/01/06,22:20,0.227,0.194,0.315,0.296,0.278,0.157,0.095,���쐼,3.1,��
2019/01/06,22:30,0.227,0.194,0.317,0.296,0.279,0.157,0.095,���k��,3.5,��
2019/01/06,22:40,0.227,0.194,0.314,0.295,0.278,0.156,0.095,��,3.6,��
2019/01/06,22:50,0.227,0.195,0.315,0.295,0.279,0.157,0.096,��,3.3,��
2019/01/06,23:00,0.228,0.195,0.316,0.295,0.279,0.157,0.095,��,4.6,��
2019/01/06,23:10,0.227,0.194,0.316,0.296,0.279,0.157,0.095,��,6.4,��
2019/01/06,23:20,0.227,0.195,0.315,0.295,0.278,0.157,0.095,��,5.4,��
2019/01/06,23:30,0.226,0.195,0.316,0.296,0.280,0.157,0.095,��,4.6,��
2019/01/06,23:40,0.226,0.195,0.313,0.294,0.278,0.157,0.095,��,3.7,��
2019/01/06,23:50,0.226,0.194,0.315,0.295,0.277,0.157,0.096,���k��,2.9,��
